Weather History for Arbor Vitae, WI

Change the Weather History Date:

Wednesday, November 27, 2013

  Actual Average Record
Temperature  
Mean Temperature 15 °F -  
Max Temperature 21 °F 32 °F 64 °F (1998)
Min Temperature 9 °F 15 °F -10 °F (1930)
Degree Days  
Heating Degree Days 50    
Moisture  
Dew Point 11 °F    
Average Humidity 78    
Maximum Humidity 89    
Minimum Humidity 57    
Precipitation  
Precipitation 0.00 in - - ()
Sea Level Pressure  
Sea Level Pressure 30.14 in    
Wind  
Wind Speed 2 mph (NNW)    
Max Wind Speed 9 mph    
Max Gust Speed -    
Visibility 7 miles    
Events Snow    
Averages and records for this station are not official NWS values.
T = Trace of Precipitation, MM = Missing Value Source: NWS Daily Summary

Daily Weather History Graph

Daily Weather History Graph

Search for Another Location

Airport:

Trip Planner

Search our weather history database for the weather conditions in past years. The results will help you decide how hot, cold, wet, or windy it might be!

Date:

Astronomy

Nov. 27, 2013 Rise Set
Actual Time 7:15 AM CST 4:17 PM CST
Civil Twilight 6:42 AM CST 4:50 PM CST
Nautical Twilight 6:04 AM CST 5:28 PM CST
Astronomical Twilight 5:29 AM CST 6:03 PM CST
Moon 1:00 AM CST (11/27) 1:10 PM CST (11/27)
Length of Visible Light 10h 08m
Length of Day
9h 01m
Waning Crescent, 31% of the Moon is Illuminated
Nov 27
Waning Crescent
Dec 2
New
Dec 9
First Quarter
Dec 17
Full
Dec 25
Last Quarter

Hourly Weather History & Observations

Time (CST) Temp. Windchill Dew Point Humidity Pressure Visibility Wind Dir Wind Speed Gust Speed Precip Events Conditions
12:15 AM 9.0 °F - 5.7 °F 87% 30.15 in 3.0 mi Calm Calm - N/A Snow Light Snow
12:35 AM 11.3 °F 5.1 °F 8.2 °F 87% 30.15 in 3.0 mi NW 3.5 mph - N/A Snow Light Snow
12:55 AM 11.3 °F - 7.7 °F 85% 30.15 in 10.0 mi Calm Calm - N/A   Mostly Cloudy
1:15 AM 12.2 °F 6.1 °F 8.6 °F 85% 30.15 in 7.0 mi NNW 3.5 mph - N/A Snow Light Snow
1:35 AM 14.0 °F 8.2 °F 10.4 °F 86% 30.15 in 4.0 mi NNW 3.5 mph - N/A Snow Light Snow
1:55 AM 14.0 °F 8.2 °F 10.6 °F 86% 30.15 in 10.0 mi NW 3.5 mph - N/A Snow Light Snow
2:15 AM 14.0 °F 6.5 °F 10.4 °F 86% 30.15 in 7.0 mi WNW 4.6 mph - N/A Snow Light Snow
2:35 AM 13.6 °F 4.6 °F 10.2 °F 86% 30.15 in 10.0 mi WNW 5.8 mph - N/A   Scattered Clouds
2:55 AM 14.0 °F 2.9 °F 10.8 °F 87% 30.15 in 10.0 mi NNW 8.1 mph - N/A   Overcast
3:15 AM 16.7 °F 8.3 °F 13.1 °F 86% 30.15 in 10.0 mi NNW 5.8 mph - N/A   Overcast
3:35 AM 15.1 °F 7.7 °F 11.7 °F 86% 30.15 in 10.0 mi NW 4.6 mph - N/A   Mostly Cloudy
3:55 AM 14.0 °F 8.2 °F 10.8 °F 87% 30.15 in 10.0 mi NNW 3.5 mph - N/A   Overcast
4:15 AM 14.0 °F 8.2 °F 10.8 °F 87% 30.16 in 10.0 mi NNW 3.5 mph - N/A   Scattered Clouds
4:35 AM 14.0 °F 6.5 °F 10.9 °F 88% 30.16 in 10.0 mi NNW 4.6 mph - N/A   Mostly Cloudy
4:55 AM 14.5 °F 2.7 °F 11.1 °F 86% 30.16 in 4.0 mi North 9.2 mph - N/A Snow Light Snow
5:15 AM 16.7 °F 6.2 °F 12.9 °F 85% 30.16 in 7.0 mi North 8.1 mph - N/A Snow Light Snow
5:35 AM 14.0 °F 8.2 °F 10.8 °F 87% 30.17 in 7.0 mi North 3.5 mph - N/A Snow Light Snow
5:55 AM 11.5 °F - 8.2 °F 87% 30.18 in 7.0 mi Calm Calm - N/A Snow Light Snow
6:15 AM 14.0 °F - 11.1 °F 88% 30.18 in 4.0 mi Calm Calm - N/A Snow Light Snow
6:35 AM 12.0 °F - 9.3 °F 89% 30.18 in 10.0 mi Calm Calm - N/A   Clear
6:55 AM 10.0 °F - 7.3 °F 89% 30.19 in 7.0 mi Calm Calm - N/A   Clear
7:15 AM 10.8 °F - 7.7 °F 87% 30.18 in 3.0 mi Calm Calm - N/A   Clear
7:35 AM 9.0 °F - 5.5 °F 86% 30.19 in 3.0 mi Calm Calm - N/A   Mostly Cloudy
7:55 AM 10.4 °F - 7.2 °F 87% 30.19 in 4.0 mi Calm Calm - N/A   Mostly Cloudy
8:15 AM 11.3 °F - 8.4 °F 88% 30.20 in 10.0 mi Calm Calm - N/A   Mostly Cloudy
8:35 AM 14.0 °F 8.2 °F 11.3 °F 89% 30.20 in 3.0 mi North 3.5 mph - N/A Snow Light Snow
8:55 AM 16.7 °F 8.3 °F 13.8 °F 88% 30.20 in 4.0 mi North 5.8 mph - N/A Snow Light Snow
9:15 AM 16.7 °F 7.2 °F 13.8 °F 88% 30.20 in 4.0 mi North 6.9 mph - N/A Snow Light Snow
9:35 AM 16.7 °F 9.6 °F 13.1 °F 86% 30.20 in 2.5 mi NNW 4.6 mph - N/A Snow Light Snow
9:55 AM 16.7 °F 11.2 °F 12.9 °F 85% 30.20 in 3.0 mi North 3.5 mph - N/A Snow Light Snow
10:15 AM 18.0 °F - 13.5 °F 83% 30.20 in 1.5 mi Calm Calm - N/A Snow Light Snow
10:35 AM 19.0 °F 13.9 °F 14.2 °F 81% 30.20 in 2.0 mi NNW 3.5 mph - N/A Snow Light Snow
10:55 AM 19.2 °F 14.1 °F 13.8 °F 80% 30.19 in 4.0 mi North 3.5 mph - N/A Snow Light Snow
11:15 AM 19.2 °F - 12.9 °F 76% 30.18 in 10.0 mi Calm Calm - N/A   Scattered Clouds
11:35 AM 19.4 °F 12.8 °F 12.0 °F 73% 30.16 in 10.0 mi North 4.6 mph - N/A   Scattered Clouds
11:55 AM 21.0 °F 16.2 °F 12.9 °F 71% 30.15 in 5.0 mi NNE 3.5 mph - N/A Snow Light Snow
12:15 PM 21.7 °F - 11.1 °F 64% 30.15 in 10.0 mi Calm Calm - N/A   Scattered Clouds
12:35 PM 21.7 °F - 10.4 °F 62% 30.15 in 10.0 mi Calm Calm - N/A Snow Light Snow
12:55 PM 21.4 °F 15.1 °F 10.8 °F 64% 30.14 in 10.0 mi North 4.6 mph - N/A   Mostly Cloudy
1:15 PM 21.7 °F - 10.6 °F 62% 30.13 in 10.0 mi Calm Calm - N/A   Clear
1:35 PM 21.7 °F 17.0 °F 8.6 °F 57% 30.13 in 10.0 mi North 3.5 mph - N/A   Mostly Cloudy
1:55 PM 21.7 °F 15.5 °F 9.5 °F 59% 30.12 in 10.0 mi North 4.6 mph - N/A   Overcast
2:15 PM 21.7 °F 17.0 °F 9.9 °F 60% 30.12 in 10.0 mi North 3.5 mph - N/A   Overcast
2:35 PM 21.7 °F - 11.3 °F 64% 30.12 in 10.0 mi Calm Calm - N/A   Mostly Cloudy
2:55 PM 21.7 °F - 9.5 °F 59% 30.11 in 10.0 mi Calm Calm - N/A   Mostly Cloudy
3:15 PM 21.7 °F - 9.0 °F 58% 30.11 in 10.0 mi Calm Calm - N/A   Overcast
3:35 PM 21.7 °F - 9.0 °F 58% 30.11 in 10.0 mi Calm Calm - N/A   Mostly Cloudy
3:55 PM 21.7 °F - 8.6 °F 57% 30.11 in 10.0 mi Calm Calm - N/A   Scattered Clouds
4:15 PM 21.7 °F - 9.1 °F 58% 30.11 in 10.0 mi Calm Calm - N/A   Mostly Cloudy
4:35 PM 21.7 °F - 9.5 °F 59% 30.11 in 10.0 mi Calm Calm - N/A   Mostly Cloudy
4:55 PM 21.7 °F - 11.3 °F 64% 30.10 in 10.0 mi Calm Calm - N/A   Overcast
5:15 PM 21.7 °F - 11.1 °F 64% 30.10 in 10.0 mi Calm Calm - N/A   Overcast
5:35 PM 19.8 °F - 9.5 °F 64% 30.10 in 10.0 mi Calm Calm - N/A   Overcast
5:55 PM 20.3 °F - 10.6 °F 66% 30.10 in 10.0 mi Calm Calm - N/A   Overcast
6:15 PM 21.7 °F - 11.5 °F 65% 30.10 in 10.0 mi Calm Calm - N/A   Overcast
6:35 PM 19.6 °F - 11.1 °F 70% 30.10 in 10.0 mi Calm Calm - N/A   Overcast
6:55 PM 19.8 °F - 11.3 °F 70% 30.10 in 10.0 mi Calm Calm - N/A   Overcast
7:15 PM 19.8 °F - 11.8 °F 71% 30.10 in 7.0 mi Calm Calm - N/A Snow Light Snow
7:35 PM 19.2 °F - 12.4 °F 75% 30.10 in 7.0 mi Calm Calm - N/A   Overcast
7:55 PM 19.2 °F - 13.1 °F 77% 30.10 in 7.0 mi Calm Calm - N/A Snow Light Snow
8:15 PM 19.2 °F - 14.4 °F 81% 30.10 in 2.5 mi Calm Calm - N/A Snow Light Snow
8:35 PM 19.2 °F - 14.9 °F 83% 30.10 in 3.0 mi Calm Calm - N/A Snow Light Snow
8:55 PM 19.2 °F - 15.4 °F 85% 30.10 in 3.0 mi Calm Calm - N/A Snow Light Snow
9:15 PM 19.2 °F - 15.6 °F 86% 30.11 in 2.5 mi Calm Calm - N/A Snow Light Snow
9:35 PM 19.2 °F - 15.8 °F 87% 30.11 in 1.2 mi Calm Calm - N/A Snow Snow
9:55 PM 19.2 °F - 15.8 °F 87% 30.11 in 1.8 mi Calm Calm - N/A Snow Light Snow
10:15 PM 19.2 °F - 15.8 °F 87% 30.11 in 2.0 mi Calm Calm - N/A Snow Light Snow
10:35 PM 19.2 °F - 15.8 °F 87% 30.11 in 1.8 mi Calm Calm - N/A Snow Light Snow
10:55 PM 19.2 °F 14.1 °F 15.8 °F 87% 30.10 in 1.8 mi South 3.5 mph - N/A Snow Light Snow
11:15 PM 19.2 °F 14.1 °F 15.6 °F 86% 30.10 in 2.0 mi South 3.5 mph - N/A Snow Light Snow
11:35 PM 19.2 °F - 15.8 °F 87% 30.09 in 1.5 mi Calm Calm - N/A Snow Light Snow
11:55 PM 19.2 °F - 15.8 °F 87% 30.08 in 1.8 mi Calm Calm - N/A Snow Light Snow